Location: Brachbach
(49.1847°N, 9.7240°E)
Time: 05:49:58
(UTC+00:00)

PCSat - Pass Details

Date: 13 March 2026
Orbit: 780 x 790 km, 67.1° (Epoch: 13 April)

Event Time Altitude Azimuth Distance (km) Brightness Sun altitude
Rises 04:58:29 0° 326° (NW) 3,296 12.5 -7.5°
Reaches altitude 10° 05:01:22 10° 340° (NNW) 2,365 11.9 -7.0°
Maximum altitude 05:05:44 24° 34° (NNE) 1,593 11.6 -6.3°
Drops below altitude 10° 05:10:05 10° 87° (E) 2,357 14.0 -5.6°
Sets 05:12:57 0° 101° (ESE) 3,282 14.8 -5.1°
